Location: Hackbridge
(51.3833°N, 0.1500°W)
Time: 00:38:15
(UTC+00:00)

STARLINK-30 - Pass Details

Date: 13 October 2019
Orbit: 549 x 551 km, 53.0° (Epoch: 21 November)

Event Time Altitude Azimuth Distance (km) Brightness Sun altitude
Rises 19:07:18 0° 238° (WSW) 2,711 7.9 -18.6°
Reaches altitude 10° 19:09:32 10° 235° (SW) 1,820 6.8 -19.0°
Maximum altitude 19:13:37 63° 155° (SSE) 619 3.6 -19.6°
Enters shadow 19:14:12 55° 113° (ESE) 666 3.6 -19.7°
